Location: St. Louis
(38.6270°N, 90.1994°W)
Time: 08:06:06
(UTC-06:00)

Vanguard 3 - All Passes

Search period start: 09 December 2021 00:00
Search period end: 19 December 2021 00:00
Orbit: 508 x 3260 km, 33.4° (Epoch: 09 December)

Date Brightness Start Highest point End Pass type
(mag) Time Alt. Az. Time Alt. Az. Time Alt. Az.
09 Dec - 00:25:59 10° SSW 00:40:28 42° SE 00:58:09 10° E visible
09 Dec - 02:37:39 10° WSW 02:55:57 68° SSE 03:14:31 10° E visible
09 Dec - 04:52:52 10° W 05:12:54 74° S 05:28:38 10° ESE visible
09 Dec - 07:10:11 10° W 07:28:17 53° SSW 07:40:21 10° SE daylight
09 Dec - 09:30:18 10° W 09:40:20 21° SW 09:47:45 10° S daylight
09 Dec - 23:13:19 10° S 23:24:51 28° SE 23:39:29 10° E visible
10 Dec - 01:22:31 10° SW 01:38:46 58° SSE 01:57:51 10° E visible
10 Dec - 03:36:05 10° WSW 03:55:22 74° S 04:13:11 10° E visible
10 Dec - 05:52:18 10° W 06:11:59 65° SSW 06:26:20 10° ESE visible
10 Dec - 08:10:34 10° W 08:25:50 35° SW 08:36:17 10° SSE daylight
10 Dec - 22:03:13 10° SSE 22:10:03 15° SE 22:18:09 10° E night (unlit)
11 Dec - 00:08:29 10° SSW 00:22:19 45° SE 00:40:19 10° E visible
11 Dec - 02:20:09 10° WSW 02:37:47 70° SSE 02:56:59 10° E visible
11 Dec - 04:35:03 10° W 04:54:51 73° S 05:11:29 10° ESE visible
11 Dec - 06:52:04 10° W 07:10:23 50° SSW 07:23:17 10° SE daylight
11 Dec - 09:12:39 10° W 09:22:34 19° SW 09:30:13 10° SSW daylight
11 Dec - 22:55:43 10° S 23:06:48 30° SE 23:21:41 10° E visible
12 Dec - 01:05:09 10° SW 01:20:37 61° SSE 01:40:03 10° E visible
12 Dec - 03:18:31 10° W 03:37:15 75° S 03:55:48 10° E visible
12 Dec - 05:34:22 10° W 05:53:58 63° SSW 06:09:13 10° SE visible
12 Dec - 07:52:32 10° W 08:07:56 33° SW 08:19:02 10° SSE daylight
12 Dec - 21:45:04 10° SSE 21:52:10 17° SE 22:00:58 10° E night (unlit)
12 Dec - 23:51:10 10° SW 00:04:15 47° SSE 00:22:20 10° E visible
13 Dec - 02:02:48 10° WSW 02:19:40 72° S 02:39:20 10° E visible
13 Dec - 04:17:21 10° W 04:36:45 72° S 04:54:12 10° ESE visible
13 Dec - 06:34:03 10° W 06:52:21 48° SSW 07:06:03 10° SE visible
13 Dec - 08:55:11 10° W 09:04:42 17° SW 09:12:24 10° SSW daylight
13 Dec - 22:38:19 10° SSW 22:48:50 32° SE 23:03:44 10° E visible
14 Dec - 00:47:57 10° SW 01:02:33 63° SSE 01:22:08 10° E visible
14 Dec - 03:01:05 10° W 03:19:08 75° S 03:38:17 10° E visible
14 Dec - 05:16:31 10° W 05:35:50 61° SSW 05:51:55 10° SE visible
14 Dec - 07:34:38 10° W 07:49:55 31° SW 08:01:34 10° SSE daylight
14 Dec - 21:27:18 10° SSE 21:34:21 18° SE 21:43:30 10° E night (unlit)
14 Dec - 23:34:01 10° SW 23:46:17 50° SSE 00:04:16 10° E visible
15 Dec - 01:45:36 10° WSW 02:01:35 73° S 02:21:32 10° E visible
15 Dec - 03:59:47 10° W 04:18:35 70° SSW 04:36:45 10° ESE visible
15 Dec - 06:16:09 10° W 06:34:14 45° SW 06:48:39 10° SSE visible
15 Dec - 08:37:59 10° W 08:46:45 16° SW 08:54:12 10° SSW daylight
15 Dec - 22:21:07 10° SSW 22:31:00 34° SE 22:45:40 10° E night (unlit)
16 Dec - 00:30:53 10° WSW 00:44:35 65° SSE 01:04:06 10° E visible
16 Dec - 02:43:46 10° W 03:01:00 74° S 03:20:37 10° ESE visible
16 Dec - 04:58:48 10° W 05:17:39 58° SSW 05:34:28 10° SE visible
16 Dec - 07:16:52 10° W 07:31:48 29° SW 07:43:52 10° S daylight
16 Dec - 21:09:48 10° S 21:16:39 20° SE 21:25:53 10° E night (unlit)
16 Dec - 23:17:01 10° SW 23:28:26 52° SSE 23:46:05 10° E visible
17 Dec - 01:28:30 10° WSW 01:43:35 73° S 02:03:38 10° E visible
17 Dec - 03:42:19 10° W 04:00:25 68° SSW 04:19:09 10° ESE visible
17 Dec - 05:58:22 10° W 06:16:01 42° SW 06:31:03 10° SSE visible
17 Dec - 08:21:13 10° WSW 08:28:45 14° SW 08:35:27 10° SSW daylight
17 Dec - 22:04:05 10° SSW 22:13:17 36° SE 22:27:33 10° E night (unlit)
18 Dec - 00:13:57 10° WSW 00:26:44 67° SSE 00:45:59 10° E visible
18 Dec - 02:26:35 10° W 02:42:55 73° S 03:02:49 10° ESE visible
18 Dec - 04:41:13 10° W 04:59:24 55° SSW 05:16:48 10° SE visible
18 Dec - 06:59:18 10° W 07:13:38 26° SW 07:25:54 10° S daylight
18 Dec - 20:52:31 10° S 20:59:03 21° SE 21:08:09 10° E night (unlit)
18 Dec - 23:00:09 10° SW 23:10:43 54° SSE 23:27:51 10° E visible
